User: anonymous   Login
Location: Caltech
(34.1382°N, 118.1253°W)
Time: 13:48:05
(UTC-07:00)
Language:

JAS-2 - Orbit

View from above orbital plane
View from above orbital plane
View from above satellite
View from above satellite

Ground track
Ground track

The orbit data is extracted from the following two-line orbital elements,

1 24278U 96046B   16243.19022615 -.00000040  00000-0 -43252-5 0  9997
2 24278  98.5829 158.7163 0350761  11.1980 349.6715 13.53070574989522
Epoch (UTC): 30 August 2016 04:33:55
Eccentricity: 0.0350761
inclination: 98.5829°
perigee height: 800 km
apogee height: 1322 km
right ascension of ascending node: 158.7163°
argument of perigee: 11.1980°
revolutions per day: 13.53070574
mean anomaly at epoch: 349.6715°
orbit number at epoch: 98952

The dashed part of the orbit path shows where the satellite is in the earth's shadow,  

DLR